Terminal Aerodrome Forecast
Issued by NWS Boston, MA

Home | Current Version | Previous Version | Text Only | Print | Product List | Glossary On
Versions: 1 2 3 4 5 6 7 8 9 10 11 12 13 14 15 16 17 18 19 20 21 22 23 24 25 26 27 28 29 30 31 32 33 34 35 36 37 38 39 40
000
FTUS41 KBOX 012321
TAFPVD
TAF
KPVD 012321Z 0200/0224 21006KT P6SM BKN060
     FM021400 VRB03KT P6SM OVC025
     FM021600 08005KT 3SM RA OVC020
     FM022100 09005KT 2SM -RA BR OVC025=

USA.gov is the U.S. government's official web portal to all federal, state and local government web resources and services.